• In Portugal
  • List of Countries
  • For 7 days
  • Water Temperature
  • Satellite Maps
  • Weather Map
  • Weather Widgets
  • user-avatar
    Login

    Hourly Weather Glinno

    Today, 23 September, Sunday

    Time Temperature Precipitation Wind Pressure Humidity
    00:00 +10°C° 0 mm 3 mps 714 mmHg 67%
    01:00 +9°C° 0 mm 5 mps 713 mmHg 65%
    02:00 +10°C° 0 mm 4 mps 713 mmHg 69%
    03:00 +8°C° 0 mm 4 mps 713 mmHg 72%
    04:00 +9°C° 0 mm 3 mps 713 mmHg 75%
    05:00 +9°C° 0 mm 3 mps 713 mmHg 75%
    06:00 +8°C° 0 mm 4 mps 712 mmHg 75%
    07:00 +8°C° 0 mm 4 mps 712 mmHg 75%
    08:00 +10°C° 0 mm 4 mps 712 mmHg 72%
    09:00 +11°C° 0 mm 4 mps 712 mmHg 69%
    10:00 +12°C° 0 mm 4 mps 712 mmHg 67%
    11:00 +11°C° 0.1 mm 4 mps 712 mmHg 69%
    12:00 +11°C° 0.1 mm 4 mps 711 mmHg 72%
    13:00 +11°C° 0.1 mm 4 mps 711 mmHg 75%
    14:00 +11°C° 0.4 mm 4 mps 709 mmHg 79%
    15:00 +11°C° 0.4 mm 4 mps 708 mmHg 83%
    16:00 +11°C° 0.4 mm 4 mps 707 mmHg 88%
    17:00 +12°C° 0.9 mm 5 mps 706 mmHg 87%
    18:00 +11°C° 0.9 mm 6 mps 704 mmHg 87%
    19:00 +12°C° 0.9 mm 7 mps 703 mmHg 87%
    20:00 +11°C° 3.5 mm 7 mps 703 mmHg 88%
    21:00 +10°C° 3.5 mm 6 mps 703 mmHg 90%
    22:00 +9°C° 3.5 mm 5 mps 704 mmHg 91%
    23:00 +8°C° 0.6 mm 6 mps 705 mmHg 91%

    Tomorrow, 24 September, Monday

    Time Temperature Precipitation Wind Pressure Humidity
    00:00 +6°C° 0.6 mm 7 mps 706 mmHg 90%
    01:00 +5°C° 0.6 mm 8 mps 707 mmHg 89%
    02:00 +5°C° 0.4 mm 7 mps 708 mmHg 88%
    03:00 +5°C° 0.4 mm 7 mps 710 mmHg 88%
    04:00 +4°C° 0.4 mm 6 mps 711 mmHg 87%
    05:00 +4°C° 0 mm 7 mps 712 mmHg 85%
    06:00 +4°C° 0 mm 7 mps 713 mmHg 84%
    07:00 +4°C° 0 mm 8 mps 713 mmHg 83%
    08:00 +5°C° 0 mm 8 mps 714 mmHg 78%
    09:00 +5°C° 0 mm 9 mps 715 mmHg 73%
    10:00 +6°C° 0 mm 9 mps 716 mmHg 68%
    11:00 +6°C° 0.1 mm 9 mps 716 mmHg 64%
    12:00 +7°C° 0.1 mm 10 mps 717 mmHg 59%
    13:00 +8°C° 0.1 mm 10 mps 717 mmHg 54%
    14:00 +7°C° 0.1 mm 10 mps 717 mmHg 53%
    15:00 +7°C° 0.1 mm 9 mps 717 mmHg 52%
    16:00 +7°C° 0.1 mm 9 mps 717 mmHg 51%
    17:00 +6°C° 0 mm 8 mps 718 mmHg 54%
    18:00 +5°C° 0 mm 6 mps 718 mmHg 58%
    19:00 +5°C° 0 mm 5 mps 719 mmHg 62%
    20:00 +3°C° 0 mm 5 mps 719 mmHg 64%
    21:00 +3°C° 0 mm 5 mps 719 mmHg 67%
    22:00 +3°C° 0 mm 4 mps 720 mmHg 69%
    23:00 +3°C° 0 mm 4 mps 720 mmHg 71%

    Day after tomorrow, 25 September, Tuesday

    Time Temperature Precipitation Wind Pressure Humidity
    00:00 +3°C° 0 mm 4 mps 721 mmHg 73%
    01:00 +1°C° 0 mm 4 mps 721 mmHg 75%
    02:00 +1°C° 0 mm 4 mps 721 mmHg 77%
    03:00 +1°C° 0 mm 4 mps 722 mmHg 79%
    04:00 0°C° 0 mm 4 mps 722 mmHg 81%
    05:00 0°C° 0 mm 4 mps 722 mmHg 81%
    06:00 +1°C° 0 mm 4 mps 723 mmHg 80%
    07:00 +1°C° 0 mm 4 mps 724 mmHg 79%
    08:00 +4°C° 0 mm 4 mps 724 mmHg 72%
    09:00 +5°C° 0 mm 4 mps 725 mmHg 65%
    10:00 +7°C° 0 mm 5 mps 725 mmHg 57%
    11:00 +7°C° 0 mm 5 mps 725 mmHg 54%
    12:00 +8°C° 0 mm 4 mps 725 mmHg 51%
    13:00 +10°C° 0 mm 4 mps 726 mmHg 48%
    14:00 +10°C° 0 mm 4 mps 725 mmHg 48%
    15:00 +10°C° 0 mm 4 mps 725 mmHg 49%
    16:00 +8°C° 0 mm 4 mps 725 mmHg 49%
    17:00 +8°C° 0 mm 3 mps 725 mmHg 54%
    18:00 +6°C° 0 mm 2 mps 725 mmHg 59%
    19:00 +5°C° 0 mm 2 mps 726 mmHg 65%
    20:00 +5°C° 0 mm 2 mps 726 mmHg 65%
    21:00 +5°C° 0 mm 1 mps 726 mmHg 66%
    22:00 +5°C° 0 mm 1 mps 726 mmHg 67%
    23:00 +4°C° 0 mm 1 mps 726 mmHg 67%

    26 September, Wednesday

    Time Temperature Precipitation Wind Pressure Humidity
    00:00 +4°C° 0 mm 1 mps 726 mmHg 68%
    01:00 +4°C° 0 mm 1 mps 726 mmHg 68%
    02:00 +4°C° 0 mm 1 mps 726 mmHg 69%
    03:00 +2°C° 0 mm 2 mps 725 mmHg 70%
    04:00 +2°C° 0 mm 2 mps 725 mmHg 70%
    05:00 +3°C° 0 mm 2 mps 725 mmHg 70%
    06:00 +3°C° 0 mm 2 mps 725 mmHg 70%
    07:00 +3°C° 0 mm 2 mps 725 mmHg 70%
    08:00 +5°C° 0 mm 3 mps 725 mmHg 63%
    09:00 +8°C° 0 mm 3 mps 725 mmHg 56%
    10:00 +10°C° 0 mm 4 mps 725 mmHg 49%
    11:00 +11°C° 0 mm 4 mps 725 mmHg 46%
    12:00 +12°C° 0 mm 4 mps 724 mmHg 44%
    13:00 +13°C° 0 mm 4 mps 724 mmHg 41%
    14:00 +13°C° 0 mm 4 mps 723 mmHg 44%
    15:00 +12°C° 0 mm 4 mps 723 mmHg 46%
    16:00 +12°C° 0 mm 4 mps 722 mmHg 48%
    17:00 +11°C° 0 mm 4 mps 722 mmHg 51%
    18:00 +10°C° 0 mm 4 mps 722 mmHg 54%
    19:00 +7°C° 0 mm 4 mps 722 mmHg 57%
    20:00 +7°C° 0 mm 4 mps 721 mmHg 58%
    21:00 +7°C° 0 mm 4 mps 721 mmHg 58%
    22:00 +6°C° 0 mm 4 mps 721 mmHg 59%
    23:00 +6°C° 0 mm 4 mps 721 mmHg 59%

    27 September, Thursday

    Time Temperature Precipitation Wind Pressure Humidity
    00:00 +7°C° 0 mm 3 mps 721 mmHg 60%
    01:00 +7°C° 0 mm 3 mps 720 mmHg 60%
    02:00 +7°C° 0 mm 3 mps 720 mmHg 60%
    03:00 +7°C° 0 mm 3 mps 720 mmHg 61%
    04:00 +7°C° 0 mm 3 mps 720 mmHg 61%
    05:00 +7°C° 0 mm 3 mps 720 mmHg 60%
    06:00 +8°C° 0 mm 3 mps 720 mmHg 60%
    07:00 +8°C° 0 mm 3 mps 720 mmHg 59%
    08:00 +10°C° 0 mm 4 mps 720 mmHg 55%
    09:00 +12°C° 0 mm 4 mps 721 mmHg 50%
    10:00 +14°C° 0 mm 4 mps 721 mmHg 45%
    11:00 +15°C° 0 mm 4 mps 721 mmHg 45%
    12:00 +17°C° 0 mm 4 mps 720 mmHg 45%
    13:00 +19°C° 0 mm 4 mps 720 mmHg 45%
    14:00 +18°C° 0 mm 4 mps 720 mmHg 47%
    15:00 +18°C° 0 mm 4 mps 720 mmHg 50%
    16:00 +18°C° 0 mm 3 mps 719 mmHg 52%
    17:00 +16°C° 0 mm 3 mps 719 mmHg 57%
    18:00 +14°C° 0 mm 2 mps 719 mmHg 62%
    19:00 +13°C° 0 mm 2 mps 719 mmHg 67%
    20:00 +12°C° 0 mm 2 mps 719 mmHg 68%
    21:00 +12°C° 0 mm 2 mps 718 mmHg 68%
    22:00 +10°C° 0 mm 2 mps 718 mmHg 69%
    23:00 +10°C° 0 mm 2 mps 718 mmHg 69%

    28 September, Friday

    Time Temperature Precipitation Wind Pressure Humidity
    00:00 +10°C° 0 mm 2 mps 718 mmHg 68%
    01:00 +10°C° 0 mm 2 mps 717 mmHg 68%
    02:00 +9°C° 0 mm 2 mps 717 mmHg 68%
    03:00 +9°C° 0 mm 2 mps 717 mmHg 68%
    04:00 +9°C° 0 mm 2 mps 717 mmHg 68%
    05:00 +9°C° 0 mm 2 mps 717 mmHg 69%
    06:00 +10°C° 0 mm 2 mps 717 mmHg 69%
    07:00 +10°C° 0 mm 2 mps 717 mmHg 69%
    08:00 +13°C° 0 mm 2 mps 717 mmHg 63%
    09:00 +15°C° 0 mm 2 mps 717 mmHg 58%
    10:00 +17°C° 0 mm 2 mps 717 mmHg 52%
    11:00 +18°C° 0 mm 2 mps 717 mmHg 51%
    12:00 +19°C° 0 mm 2 mps 717 mmHg 49%
    13:00 +20°C° 0 mm 2 mps 717 mmHg 48%
    14:00 +20°C° 0 mm 2 mps 717 mmHg 50%
    15:00 +19°C° 0 mm 2 mps 716 mmHg 53%
    16:00 +19°C° 0 mm 2 mps 716 mmHg 55%
    17:00 +17°C° 0 mm 2 mps 716 mmHg 64%
    18:00 +15°C° 0 mm 2 mps 716 mmHg 73%
    19:00 +13°C° 0 mm 1 mps 716 mmHg 83%
    20:00 +13°C° 0 mm 1 mps 716 mmHg 86%
    21:00 +12°C° 0 mm 1 mps 716 mmHg 88%
    22:00 +12°C° 0 mm 1 mps 716 mmHg 91%
    23:00 +11°C° 0 mm 1 mps 716 mmHg 92%
    Show more